Regional Weather Roundup
Issued by NWS

Home | Current Version | Previous Version | Graphics & Text | Print | Product List | Glossary On
Versions: 1 2 3 4 5 6 7 8 9 10 11 12 13 14 15 16 17 18 19 20 21 22 23 24 25 26 27 28 29 30 31 32 33 34 35 36 37 38 39 40 41 42 43 44 45 46 47 48 49 50
000
ASUS43 KIND 231000
RWRIN

WEATHER ROUNDUP FOR INDIANA
NATIONAL WEATHER SERVICE INDIANAPOLIS IN
600 AM EDT TUE MAY 23 2017

NOTE: "FAIR" INDICATES FEW OR NO CLOUDS BELOW 12,000 FEET WITH NO
SIGNIFICANT WEATHER AND/OR OBSTRUCTIONS TO VISIBILITY.

* - STATION DOES NOT REPORT WEATHER SUCH AS PRECIPITATION OR FOG.

+ - STATION NOT QUALITY CONTROLLED BY THE NATIONAL WEATHER SERVICE.
    USE DATA WITH CAUTION...ESPECIALLY DEWPOINT AND RELATIVE
    HUMIDITY OBSERVATIONS.

INZ001>003-010>013-019-020-231100-
NORTHWEST INDIANA

CITY           SKY/WX    TMP DP  RH WIND       PRES   REMARKS
GARY /AIRPORT/ MOCLDY    61  52  72 S5        29.84F
MICHIGAN CITY+ CLOUDY    59  52  77 S6        29.85S
MONTICELLO +   CLOUDY    57  52  82 CALM      29.87F
RENSSELAER +   DRIZZLE   57  54  88 S3        29.87S

$$

LMZ046-743>745-231100-
SOUTHERN LAKE MICHIGAN

STATION/POSITION TIME  TEMP    WIND        PRES    WAVE
                       AIR SEA DIR/SP/G            HT
                 (UTC) (F)     (DEG/KT/KT) (MB)    (FT)
BURNS HARBOR     0940   60     200/ 11/ 15 1010.8F
MICHIGAN CITY    0930   60     180/  9/ 10   N/A
5NW MICH CITY    0950   56 53  210/  6/  8   N/A     1

$$

INZ004-005-014>016-021>024-231100-
NORTH CENTRAL INDIANA

CITY           SKY/WX    TMP DP  RH WIND       PRES   REMARKS
GOSHEN         LGT RAIN  59  50  72 S5        29.88S
SOUTH BEND     CLOUDY    58  52  80 S9        29.86F

$$

INZ006>009-017-018-025>027-231100-
NORTHEAST INDIANA

CITY           SKY/WX    TMP DP  RH WIND       PRES   REMARKS
ANGOLA *+      CLOUDY    57  48  72 CALM      29.89S
FORT WAYNE     LGT RAIN  57  49  74 SW5       29.89F
KENDALLVILLE + CLOUDY    58  50  75 SW5       29.90S

$$

INZ028-029-035-036-043>045-051>053-231100-
WEST CENTRAL INDIANA

CITY           SKY/WX    TMP DP  RH WIND       PRES   REMARKS
CRAWFORDSVL +  CLOUDY    55  51  87 CALM      29.87F
GREENCASTLE +  PTCLDY    54  50  87 CALM      29.88F
LAFAYETTE      CLOUDY    57  52  83 CALM      29.88S
TERRE HAUTE    CLOUDY    58  49  72 CALM      29.86F

$$

INZ030>032-037>040-046>048-054>057-064-065-231100-
CENTRAL INDIANA

CITY           SKY/WX    TMP DP  RH WIND       PRES   REMARKS
INDIANAPOLIS   CLOUDY    59  47  64 CALM      29.87F
-EAGLE CREEK   CLOUDY    57  49  74 CALM      29.87F
KOKOMO +       CLOUDY    58  51  78 S6        29.89
SHELBYVILLE    CLOUDY    58  50  75 CALM      29.88F

$$

INZ033-034-041-042-049-050-058-059-231100-
EAST CENTRAL INDIANA

CITY           SKY/WX    TMP DP  RH WIND       PRES   REMARKS
MUNCIE         CLOUDY    58  49  72 CALM      29.89F
RICHMOND +     CLOUDY    50  46  87 E6        29.91F

$$

INZ060-061-067>069-081>083-085>088-231100-
SOUTHWEST INDIANA

CITY           SKY/WX    TMP DP  RH WIND       PRES   REMARKS
EVANSVILLE     CLOUDY    58  53  84 CALM      29.86F
HUNTINGBURG *+ CLOUDY    54  51  90 CALM      29.87S

$$

INZ062-063-066-070>080-084-089>092-231100-
SOUTH CENTRAL AND SOUTHEAST INDIANA

CITY           SKY/WX    TMP DP  RH WIND       PRES   REMARKS
BLOOMINGTON    CLOUDY    55  50  83 CALM      29.87F
MADISON *+     CLOUDY    52  50  93 SE3       29.91R
SEYMOUR +      PTCLDY    54  52  94 CALM      29.88F

$$





USA.gov is the U.S. government's official web portal to all federal, state and local government web resources and services.